LZT6R LBSF-LBSF

Flight info

Callsign LZT6R
Flight time 0h 47m
Altitude 8000
Route LBSF/27 HOLD SOF DCT WAK HOLD WAK DCT BLO DCT LBSF/27
Aircraft MU2/L-V/N

Departure

Time 2026-05-06 18:17
Airport Sofia Airport (LBSF)

Arrival

Time 2026-05-06 19:05
Airport Sofia Airport (LBSF)
Time Latitude Longitude Altitude Speed Heading
2026-05-06 17:47 42.69385 23.39763 1759 ft 0 kts 196°
2026-05-06 17:56 42.69385 23.39762 1758 ft 0 kts 195°
2026-05-06 18:08 42.69384 23.39762 1759 ft 4 kts 194°
2026-05-06 18:08 42.69374 23.39757 1759 ft 3 kts 205°
2026-05-06 18:09 42.69342 23.39728 1759 ft 7 kts 200°
2026-05-06 18:09 42.69293 23.39735 1760 ft 8 kts 114°
2026-05-06 18:09 42.69275 23.39816 1762 ft 9 kts 105°
2026-05-06 18:09 42.69254 23.39909 1762 ft 11 kts 107°
2026-05-06 18:10 42.69223 23.40015 1764 ft 12 kts 117°
2026-05-06 18:10 42.69191 23.40118 1766 ft 11 kts 107°
2026-05-06 18:10 42.69167 23.40224 1767 ft 12 kts 105°
2026-05-06 18:10 42.69163 23.40338 1767 ft 13 kts 43°
2026-05-06 18:11 42.69268 23.40388 1765 ft 17 kts 15°
2026-05-06 18:11 42.69392 23.40439 1762 ft 18 kts 16°
2026-05-06 18:11 42.69494 23.40482 1760 ft 11 kts 32°
2026-05-06 18:11 42.69519 23.40554 1759 ft 9 kts 78°
2026-05-06 18:12 42.69519 23.40680 1757 ft 18 kts 96°
2026-05-06 18:12 42.69506 23.40876 1757 ft 23 kts 95°
2026-05-06 18:12 42.69490 23.41106 1757 ft 25 kts 94°
2026-05-06 18:12 42.69477 23.41352 1757 ft 27 kts 93°
2026-05-06 18:13 42.69459 23.41615 1754 ft 27 kts 93°
2026-05-06 18:13 42.69446 23.41877 1753 ft 28 kts 97°
2026-05-06 18:13 42.69430 23.42139 1754 ft 27 kts 95°
2026-05-06 18:13 42.69416 23.42400 1753 ft 28 kts 94°
2026-05-06 18:14 42.69400 23.42667 1749 ft 28 kts 95°
2026-05-06 18:14 42.69384 23.42932 1749 ft 28 kts 95°
2026-05-06 18:14 42.69368 23.43195 1753 ft 27 kts 94°
2026-05-06 18:14 42.69354 23.43442 1756 ft 25 kts 95°
2026-05-06 18:15 42.69342 23.43675 1757 ft 20 kts 94°
2026-05-06 18:15 42.69332 23.43814 1757 ft 9 kts 95°
2026-05-06 18:15 42.69331 23.43886 1757 ft 6 kts 78°
2026-05-06 18:15 42.69358 23.43930 1757 ft 6 kts 17°
2026-05-06 18:16 42.69408 23.43942 1757 ft 12 kts
2026-05-06 18:16 42.69496 23.43936 1757 ft 10 kts 329°
2026-05-06 18:16 42.69512 23.43864 1757 ft 34 kts 274°
2026-05-06 18:16 42.69554 23.43094 1748 ft 117 kts 274°
2026-05-06 18:17 42.69654 23.41880 1884 ft 134 kts 271°
2026-05-06 18:17 42.69770 23.40577 2125 ft 151 kts 275°
2026-05-06 18:17 42.69922 23.39013 2415 ft 179 kts 284°
2026-05-06 18:17 42.70671 23.37630 2785 ft 195 kts 328°
2026-05-06 18:18 42.71997 23.37191 3232 ft 199 kts 359°
2026-05-06 18:18 42.73368 23.37245 3716 ft 201 kts
2026-05-06 18:18 42.74775 23.37374 4215 ft 203 kts
2026-05-06 18:18 42.76182 23.37523 4721 ft 205 kts
2026-05-06 18:19 42.77602 23.37689 5232 ft 206 kts
2026-05-06 18:19 42.79017 23.37870 5736 ft 206 kts
2026-05-06 18:19 42.80440 23.38068 6237 ft 206 kts
2026-05-06 18:19 42.81862 23.38279 6736 ft 207 kts
2026-05-06 18:20 42.83271 23.38639 7211 ft 208 kts 25°
2026-05-06 18:20 42.84240 23.40052 7655 ft 208 kts 70°
2026-05-06 18:20 42.84241 23.41963 8000 ft 210 kts 112°
2026-05-06 18:20 42.83283 23.43499 8066 ft 221 kts 146°
2026-05-06 18:21 42.81940 23.44569 8061 ft 225 kts 153°
2026-05-06 18:21 42.80552 23.45549 8056 ft 225 kts 154°
2026-05-06 18:21 42.79171 23.46507 8048 ft 225 kts 154°
2026-05-06 18:21 42.77769 23.47481 8049 ft 225 kts 154°
2026-05-06 18:22 42.76370 23.48451 8048 ft 225 kts 154°
2026-05-06 18:22 42.74974 23.49420 8041 ft 225 kts 154°
2026-05-06 18:22 42.73593 23.50377 8045 ft 225 kts 154°
2026-05-06 18:22 42.72203 23.51341 8048 ft 224 kts 154°
2026-05-06 18:23 42.70804 23.52311 8053 ft 225 kts 154°
2026-05-06 18:23 42.69420 23.53269 8055 ft 225 kts 154°
2026-05-06 18:23 42.67988 23.54088 8036 ft 224 kts 173°
2026-05-06 18:23 42.66503 23.53649 8049 ft 220 kts 213°
2026-05-06 18:24 42.65636 23.52010 8052 ft 219 kts 255°
2026-05-06 18:24 42.65798 23.49996 8057 ft 221 kts 293°
2026-05-06 18:24 42.66537 23.48164 8054 ft 222 kts 299°
2026-05-06 18:24 42.67264 23.46320 8055 ft 222 kts 292°
2026-05-06 18:25 42.67914 23.44407 8054 ft 223 kts 294°
2026-05-06 18:25 42.68635 23.42525 8049 ft 224 kts 295°
2026-05-06 18:25 42.69282 23.40616 8048 ft 223 kts 290°
2026-05-06 18:25 42.69861 23.38658 8048 ft 224 kts 290°
2026-05-06 18:26 42.70460 23.36717 8043 ft 225 kts 294°
2026-05-06 18:26 42.71378 23.34988 8043 ft 227 kts 313°
2026-05-06 18:26 42.72475 23.33449 8048 ft 226 kts 308°
2026-05-06 18:26 42.73444 23.31798 8043 ft 226 kts 306°
2026-05-06 18:27 42.74394 23.30088 8047 ft 226 kts 304°
2026-05-06 18:27 42.75328 23.28355 8047 ft 227 kts 304°
2026-05-06 18:27 42.76288 23.26672 8034 ft 228 kts 311°
2026-05-06 18:27 42.77616 23.25492 8037 ft 230 kts 339°
2026-05-06 18:28 42.79201 23.25317 8039 ft 232 kts
2026-05-06 18:28 42.80671 23.26184 8040 ft 233 kts 37°
2026-05-06 18:28 42.81668 23.27892 8036 ft 232 kts 66°
2026-05-06 18:28 42.81948 23.30029 8036 ft 229 kts 96°
2026-05-06 18:29 42.81461 23.32067 8045 ft 226 kts 120°
2026-05-06 18:29 42.80640 23.33881 8039 ft 226 kts 125°
2026-05-06 18:29 42.79766 23.35674 8039 ft 226 kts 125°
2026-05-06 18:29 42.78896 23.37446 8038 ft 227 kts 125°
2026-05-06 18:30 42.78013 23.39242 8040 ft 227 kts 125°
2026-05-06 18:30 42.77127 23.41034 8038 ft 227 kts 125°
2026-05-06 18:30 42.76254 23.42799 8036 ft 227 kts 125°
2026-05-06 18:30 42.75370 23.44589 8037 ft 227 kts 125°
2026-05-06 18:31 42.74323 23.46171 8030 ft 225 kts 150°
2026-05-06 18:31 42.72846 23.46554 8038 ft 220 kts 191°
2026-05-06 18:31 42.71481 23.45677 8042 ft 218 kts 218°
2026-05-06 18:31 42.70490 23.44130 8050 ft 218 kts 237°
2026-05-06 18:32 42.69758 23.42318 8046 ft 219 kts 242°
2026-05-06 18:32 42.69064 23.40458 8045 ft 220 kts 242°
2026-05-06 18:32 42.68745 23.38462 8040 ft 222 kts 276°
2026-05-06 18:32 42.69468 23.36655 8045 ft 226 kts 317°
2026-05-06 18:33 42.70901 23.35790 8056 ft 228 kts 345°
2026-05-06 18:33 42.72480 23.35412 8045 ft 230 kts 353°
2026-05-06 18:33 42.74058 23.35539 8038 ft 231 kts 16°
2026-05-06 18:33 42.75479 23.36536 8031 ft 232 kts 40°
2026-05-06 18:34 42.76325 23.38352 8031 ft 231 kts 77°
2026-05-06 18:34 42.76307 23.40501 8046 ft 228 kts 100°
2026-05-06 18:34 42.75960 23.42635 8040 ft 229 kts 105°
2026-05-06 18:34 42.75570 23.44714 8038 ft 229 kts 105°
2026-05-06 18:35 42.75167 23.46830 8043 ft 230 kts 105°
2026-05-06 18:35 42.74765 23.48935 8041 ft 230 kts 105°
2026-05-06 18:35 42.74361 23.51040 8043 ft 230 kts 105°
2026-05-06 18:35 42.73957 23.53133 8047 ft 230 kts 105°
2026-05-06 18:36 42.73545 23.55251 8057 ft 230 kts 105°
2026-05-06 18:36 42.73137 23.57338 8058 ft 231 kts 105°
2026-05-06 18:36 42.72505 23.59354 8063 ft 229 kts 118°
2026-05-06 18:36 42.71780 23.61275 8056 ft 230 kts 116°
2026-05-06 18:37 42.71191 23.63289 8057 ft 230 kts 110°
2026-05-06 18:37 42.70845 23.64662 8058 ft 230 kts 109°
2026-05-06 18:37 42.70174 23.67399 8065 ft 230 kts 109°
2026-05-06 18:37 42.69658 23.69489 8068 ft 230 kts 110°
2026-05-06 18:38 42.69152 23.71537 8068 ft 230 kts 109°
2026-05-06 18:38 42.68638 23.73615 8070 ft 231 kts 109°
2026-05-06 18:38 42.68131 23.75666 8075 ft 231 kts 109°
2026-05-06 18:38 42.67619 23.77732 8079 ft 231 kts 109°
2026-05-06 18:39 42.67105 23.79806 8084 ft 231 kts 109°
2026-05-06 18:39 42.66592 23.81885 8088 ft 231 kts 109°
2026-05-06 18:39 42.65706 23.83630 8080 ft 228 kts 146°
2026-05-06 18:40 42.62832 23.83372 8090 ft 221 kts 218°
2026-05-06 18:40 42.61788 23.81830 8069 ft 221 kts 236°
2026-05-06 18:40 42.60980 23.80069 8059 ft 222 kts 240°
2026-05-06 18:40 42.60209 23.78250 8056 ft 222 kts 240°
2026-05-06 18:41 42.59449 23.76436 8055 ft 222 kts 240°
2026-05-06 18:41 42.58704 23.74638 8155 ft 217 kts 242°
2026-05-06 18:41 42.58055 23.72802 8301 ft 212 kts 248°
2026-05-06 18:41 42.57544 23.70963 8431 ft 209 kts 250°
2026-05-06 18:42 42.57054 23.69104 8547 ft 208 kts 248°
2026-05-06 18:42 42.56087 23.67700 8610 ft 210 kts 205°
2026-05-06 18:42 42.54658 23.67628 8676 ft 214 kts 161°
2026-05-06 18:42 42.53567 23.68950 8744 ft 218 kts 118°
2026-05-06 18:43 42.53130 23.70920 8869 ft 217 kts 102°
2026-05-06 18:43 42.52858 23.72921 8999 ft 215 kts 101°
2026-05-06 18:43 42.52601 23.74923 9139 ft 216 kts 100°
2026-05-06 18:43 42.52342 23.76927 9302 ft 216 kts 101°
2026-05-06 18:44 42.52080 23.78933 9455 ft 217 kts 101°
2026-05-06 18:44 42.52117 23.80938 9580 ft 218 kts 68°
2026-05-06 18:44 42.53125 23.82404 9700 ft 216 kts 24°
2026-05-06 18:44 42.54583 23.82514 9824 ft 212 kts 339°
2026-05-06 18:45 42.55669 23.81243 9953 ft 210 kts 301°
2026-05-06 18:45 42.56276 23.79473 10115 ft 209 kts 287°
2026-05-06 18:45 42.56626 23.77570 10271 ft 209 kts 282°
2026-05-06 18:45 42.56824 23.76267 10234 ft 215 kts 281°
2026-05-06 18:46 42.57227 23.73560 10165 ft 224 kts 281°
2026-05-06 18:46 42.57541 23.71463 10138 ft 227 kts 281°
2026-05-06 18:46 42.57798 23.69334 10115 ft 229 kts 275°
2026-05-06 18:46 42.57415 23.67273 10066 ft 231 kts 236°
2026-05-06 18:47 42.56125 23.66059 10059 ft 234 kts 196°
2026-05-06 18:47 42.54513 23.66281 10056 ft 237 kts 155°
2026-05-06 18:47 42.53388 23.67846 10058 ft 240 kts 116°
2026-05-06 18:47 42.52933 23.70033 10065 ft 240 kts 102°
2026-05-06 18:48 42.52642 23.72265 10062 ft 241 kts 100°
2026-05-06 18:48 42.52365 23.74488 10060 ft 241 kts 100°
2026-05-06 18:48 42.52084 23.76744 10057 ft 241 kts 98°
2026-05-06 18:48 42.52323 23.78935 10052 ft 239 kts 62°
2026-05-06 18:49 42.53518 23.80419 10053 ft 236 kts 21°
2026-05-06 18:49 42.55123 23.80504 10053 ft 232 kts 340°
2026-05-06 18:49 42.56352 23.79165 10057 ft 229 kts 300°
2026-05-06 18:49 42.56983 23.77200 10069 ft 229 kts 290°
2026-05-06 18:50 42.57506 23.75157 10061 ft 230 kts 288°
2026-05-06 18:50 42.58015 23.73111 10057 ft 230 kts 288°
2026-05-06 18:50 42.58374 23.70998 10048 ft 230 kts 271°
2026-05-06 18:50 42.57848 23.68972 10055 ft 230 kts 231°
2026-05-06 18:51 42.56486 23.67934 10058 ft 233 kts 190°
2026-05-06 18:51 42.54916 23.68353 10059 ft 236 kts 150°
2026-05-06 18:51 42.53895 23.70055 10067 ft 239 kts 112°
2026-05-06 18:51 42.53471 23.72243 10067 ft 240 kts 102°
2026-05-06 18:52 42.53161 23.74468 10062 ft 240 kts 100°
2026-05-06 18:52 42.52860 23.76703 10059 ft 241 kts 101°
2026-05-06 18:52 42.52560 23.78917 10040 ft 242 kts 100°
2026-05-06 18:52 42.52255 23.81188 9863 ft 248 kts 100°
2026-05-06 18:53 42.52401 23.83499 9639 ft 250 kts 66°
2026-05-06 18:53 42.53394 23.85423 9455 ft 247 kts 48°
2026-05-06 18:53 42.54543 23.87141 9235 ft 248 kts 46°
2026-05-06 18:53 42.55702 23.88827 8988 ft 243 kts 46°
2026-05-06 18:54 42.56835 23.90473 8712 ft 236 kts 46°
2026-05-06 18:54 42.57948 23.92093 8423 ft 231 kts 46°
2026-05-06 18:54 42.59033 23.93669 8144 ft 228 kts 46°
2026-05-06 18:54 42.60093 23.95210 8070 ft 218 kts 46°
2026-05-06 18:55 42.61103 23.96674 8061 ft 212 kts 46°
2026-05-06 18:55 42.62105 23.98129 8036 ft 207 kts 46°
2026-05-06 18:55 42.63118 23.99507 7954 ft 206 kts 33°
2026-05-06 18:55 42.64459 24.00088 7866 ft 204 kts
2026-05-06 18:56 42.65829 23.99696 7768 ft 202 kts 332°
2026-05-06 18:56 42.66740 23.98343 7656 ft 200 kts 291°
2026-05-06 18:56 42.66994 23.96483 7574 ft 199 kts 270°
2026-05-06 18:56 42.66946 23.94612 7502 ft 198 kts 265°
2026-05-06 18:57 42.66885 23.92724 7319 ft 204 kts 265°
2026-05-06 18:57 42.66846 23.90783 7122 ft 208 kts 268°
2026-05-06 18:57 42.66861 23.88796 6928 ft 211 kts 269°
2026-05-06 18:57 42.66862 23.86816 6746 ft 212 kts 269°
2026-05-06 18:58 42.66946 23.84796 6566 ft 213 kts 274°
2026-05-06 18:58 42.67072 23.82811 6394 ft 213 kts 274°
2026-05-06 18:58 42.67201 23.80787 6221 ft 213 kts 274°
2026-05-06 18:58 42.67328 23.78800 6050 ft 213 kts 274°
2026-05-06 18:59 42.67458 23.76796 5876 ft 211 kts 274°
2026-05-06 18:59 42.67582 23.74833 5699 ft 210 kts 274°
2026-05-06 18:59 42.67709 23.72845 5517 ft 209 kts 274°
2026-05-06 18:59 42.67834 23.70884 5336 ft 208 kts 274°
2026-05-06 19:00 42.67956 23.68944 5240 ft 204 kts 274°
2026-05-06 19:00 42.68074 23.67050 5062 ft 205 kts 274°
2026-05-06 19:00 42.68195 23.65165 4801 ft 190 kts 274°
2026-05-06 19:00 42.68267 23.64006 4635 ft 181 kts 274°
2026-05-06 19:01 42.68405 23.61821 4318 ft 170 kts 274°
2026-05-06 19:01 42.68502 23.60300 4091 ft 152 kts 274°
2026-05-06 19:01 42.68591 23.58937 3913 ft 139 kts 274°
2026-05-06 19:01 42.68671 23.57677 3722 ft 132 kts 273°
2026-05-06 19:02 42.68746 23.56452 3547 ft 128 kts 273°
2026-05-06 19:02 42.68816 23.55262 3380 ft 126 kts 273°
2026-05-06 19:02 42.68887 23.54077 3219 ft 128 kts 273°
2026-05-06 19:02 42.68962 23.52835 3052 ft 136 kts 273°
2026-05-06 19:03 42.69043 23.51538 2864 ft 139 kts 273°
2026-05-06 19:03 42.69124 23.50234 2675 ft 139 kts 273°
2026-05-06 19:03 42.69204 23.48924 2490 ft 137 kts 274°
2026-05-06 19:03 42.69285 23.47643 2292 ft 138 kts 275°
2026-05-06 19:04 42.69376 23.46361 2083 ft 135 kts 274°
2026-05-06 19:04 42.69446 23.45108 1905 ft 127 kts 273°
2026-05-06 19:04 42.69512 23.43946 1776 ft 122 kts 275°
2026-05-06 19:04 42.69590 23.42857 1745 ft 105 kts 273°
2026-05-06 19:05 42.69626 23.42011 1750 ft 58 kts 274°
2026-05-06 19:05 42.69603 23.41635 1751 ft 32 kts 247°
2026-05-06 19:05 42.69569 23.41530 1752 ft 8 kts 246°
2026-05-06 19:05 42.69535 23.41429 1753 ft 13 kts 244°
2026-05-06 19:06 42.69493 23.41302 1756 ft 16 kts 252°
2026-05-06 19:06 42.69492 23.41137 1755 ft 19 kts 275°
2026-05-06 19:06 42.69502 23.40945 1755 ft 20 kts 278°
2026-05-06 19:06 42.69516 23.40745 1755 ft 21 kts 274°
2026-05-06 19:07 42.69527 23.40544 1756 ft 21 kts 269°
2026-05-06 19:07 42.69476 23.40472 1758 ft 16 kts 198°
2026-05-06 19:07 42.69318 23.40411 1762 ft 18 kts 197°
2026-05-06 19:07 42.69198 23.40360 1764 ft 13 kts 198°
2026-05-06 19:08 42.69154 23.40269 1765 ft 16 kts 288°
2026-05-06 19:08 42.69196 23.40098 1763 ft 21 kts 290°
2026-05-06 19:08 42.69252 23.39921 1760 ft 15 kts 289°
2026-05-06 19:08 42.69250 23.39928 1760 ft 4 kts 290°
2026-05-06 19:09 42.69245 23.39947 1760 ft 2 kts 289°
2026-05-06 19:09 42.69278 23.39958 1759 ft 9 kts 18°
2026-05-06 19:09 42.69369 23.39976 1757 ft 15 kts 323°
2026-05-06 19:09 42.69406 23.39851 1756 ft 13 kts 287°
2026-05-06 19:10 42.69391 23.39765 1755 ft 6 kts 196°
2026-05-06 19:10 42.69387 23.39763 1756 ft 0 kts 189°